Find OneWeb SL0118

NORAD ID: 47264 Int'l Des: 2020-100 Owner: ONEWEB Country: UK Constellation: oneweb operational
LEOCIRCULARPOLARONEWEB_TYPE

实时位置

正在加载3D地球...

关于 OneWeb SL0118

正在加载描述...

即将过境

Passes for default location (London). Set your location on the main map for personalized predictions.

高度历史

Loading altitude history...

两行轨道根数

1 47264U 20100G 26126.40174302 .00000447 00000-0 12065-2 0 9995
2 47264 87.8980 358.9585 0001577 91.7812 268.3497 13.12444205259243
Epoch: May 6, 2026 • Age: 9 hours

当前状态

高度 1237.4 km
速度 7.23 km/s
星下点 -58.40°S, 45.12°E
发射日期 Dec 18, 2020
运行时间 5.3 years
类型 internet

技术详情

分类 Payload
质量 148.00 kg
干质量 140.00 kg
总质量 148.00 kg
长度 1.30 m
直径 1.00 m
跨度 5.00 m
形状 Trapezoid+2 pan
制造商 ONEWUS
平台类型 ARROW
阶段状态 In Orbit
所有者/国家 ONEWEB/UK

Most Searched